Tracking 25372 objects as of 24-Jan-2022
HD Live streaming from Space Station
objects crossing your sky now

COSMOS 1136

Track COSMOS 1136 now!
10-day predictions
COSMOS 1136 is classified as:


NORAD ID: 11544
Int'l Code: 1979-084G
Perigee: 1,478.7 km
Apogee: 1,504.2 km
Inclination: 74.0 °
Period: 115.6 minutes
Semi major axis: 7862 km
RCS: 0.6827 m2 (medium)
Launch date: September 25, 1979
Source: Commonwealth of Independent States (former USSR) (CIS)
Launch site: PLESETSK MISSILE AND SPACE COMPLEX (PKMTR)
aabbcc
Your satellite tracking list
Your tracking list is empty




NASA's NSSDC Master Catalog

Two Line Element Set (TLE):
1 11544U 79084G   22023.73179566  .00000001  00000-0  11597-3 0  9993
2 11544  74.0248 119.5812 0016231 229.6953 243.8012 12.45276279924277
Source of the keplerian elements: AFSPC